TimeCST,TemperatureF,Dew PointF,Humidity,Sea Level PressureIn,VisibilityMPH,Wind Direction,Wind SpeedMPH,Gust SpeedMPH,PrecipitationIn,Events,Conditions,WindDirDegrees,DateUTC
12:53 AM,53.1,46.9,80,30.02,10.0,South,9.2,-,N/A,,Clear,180,2012-11-10 06:53:00
1:53 AM,53.1,46.0,77,30.04,10.0,South,9.2,-,N/A,,Clear,180,2012-11-10 07:53:00
2:53 AM,52.0,45.0,77,30.03,10.0,South,11.5,-,N/A,,Clear,170,2012-11-10 08:53:00
3:53 AM,52.0,44.1,74,30.04,10.0,South,11.5,-,N/A,,Overcast,170,2012-11-10 09:53:00
4:53 AM,53.1,44.1,71,30.04,10.0,South,11.5,-,N/A,,Overcast,180,2012-11-10 10:53:00
5:53 AM,53.1,43.0,69,30.04,10.0,South,12.7,-,N/A,,Overcast,170,2012-11-10 11:53:00
6:53 AM,52.0,43.0,71,30.05,10.0,South,12.7,-,N/A,,Scattered Clouds,170,2012-11-10 12:53:00
7:53 AM,54.0,44.1,69,30.06,10.0,South,11.5,-,N/A,,Overcast,170,2012-11-10 13:53:00
8:53 AM,55.9,46.9,72,30.05,10.0,South,12.7,18.4,N/A,,Overcast,170,2012-11-10 14:53:00
9:53 AM,60.1,48.9,67,30.04,10.0,South,13.8,23.0,N/A,,Clear,170,2012-11-10 15:53:00
10:53 AM,64.0,51.1,63,30.03,10.0,South,12.7,23.0,N/A,,Clear,180,2012-11-10 16:53:00
11:53 AM,66.9,51.1,57,30.00,10.0,South,16.1,28.8,N/A,,Clear,180,2012-11-10 17:53:00
12:53 PM,70.0,48.9,47,29.99,10.0,South,15.0,23.0,N/A,,Clear,180,2012-11-10 18:53:00
1:53 PM,71.1,48.0,44,29.98,10.0,South,13.8,24.2,N/A,,Clear,190,2012-11-10 19:53:00
2:53 PM,70.0,48.9,47,29.97,10.0,South,16.1,23.0,N/A,,Clear,180,2012-11-10 20:53:00
3:53 PM,69.1,48.0,47,29.99,10.0,South,13.8,24.2,N/A,,Clear,180,2012-11-10 21:53:00
4:53 PM,66.0,50.0,56,30.00,10.0,South,12.7,20.7,N/A,,Clear,170,2012-11-10 22:53:00
5:53 PM,64.0,50.0,60,30.03,10.0,South,13.8,20.7,N/A,,Clear,170,2012-11-10 23:53:00
6:53 PM,63.0,48.9,60,30.03,10.0,South,11.5,-,N/A,,Clear,170,2012-11-11 00:53:00
7:53 PM,62.1,48.9,62,30.03,10.0,South,12.7,-,N/A,,Clear,170,2012-11-11 01:53:00
8:53 PM,61.0,50.0,67,30.03,10.0,South,13.8,21.9,N/A,,Clear,170,2012-11-11 02:53:00
11:53 PM,60.1,44.1,55,29.99,10.0,South,16.1,29.9,N/A,,Clear,180,2012-11-11 05:53:00